Tianhe

operational
NORAD ID: 48274 Int'l Des: 2021-035 Owner: CMSEO Country: CN
LEOCIRCULAR

关于 Tianhe

正在加载描述...

实时位置

正在加载3D地球...

即将过境

高度历史

Altitude vs Time

uPlot chart will show altitude changes over time

两行轨道根数

1 48274U 21035A 25261.12596439 .00029313 00000-0 35912-3 0 9992
2 48274 41.4645 177.1936 0003309 5.6412 354.4463 15.59705520250654
Epoch: Sep 18, 2025 • Age: 13 hours

当前状态

高度 390.5 km
速度 7.68 km/s
星下点 35.57°N, 65.19°E
发射日期 Apr 29, 2021
运行时间 4.3 years
类型 other

技术详情

分类 Payload
质量 21500.00 kg
干质量 20838.00 kg
总质量 22500.00 kg
长度 16.60 m
直径 4.20 m
跨度 30.00 m
形状 Step Cyl + 2 Pan
制造商 CAST
平台类型 Tianhe
阶段状态 In Orbit
所有者/国家 CMSEO/CN

大型星座

Loading constellations...